Content
SEND FEEDBACK

Daily
Averages
Monthly
Summary
United States of America

CHAUTAUQUA, NEW YORK


Home > North America > United States > New York
Elevation: 1264 feet     Latitude: 42 17N     Longitude: 079 37W

WEATHER
 
SELECT A DAY
Number of Records: 202,581;   Date Range: 12/11/96 - 7/7/14
 
SHARE

PRINT THIS DATA

[ ← Previous Day ]
WEATHER ALMANAC - OCTOBER 25, 2013
[ Next Day → ]
[ °C ]   °F
Weather ElementAverageHighLow
Temperature43.3 °F46.9 °F (12:53 pm)39.2 °F (10:39 pm)
Dewpoint35.6 °F37.9 °F (9:53 am)30.9 °F (5:53 pm)
Humidity74.5 %87 % (10:39 pm)59 % (1:53 pm)
Barometer30.16 in30.23 in (11:53 am)30.05 in (1:13 am)
Wind Speed12.8 mph20.7 mph (1:53 pm)
Wind Gust28.8 mph (11:53 am)
Weather ElementAverage
Visibility10 mi
Wind DirectionW (272.9 °)

Weather ElementTotal
Precipitation0.17 in
Heating Degree Days22 (Base 65)
Averaged from 38 records on October 25, 2013
WEATHER CONDITIONS BREAKOUT
WIND DIRECTION BREAKOUT
WEATHER BY HOUR - OCTOBER 25, 2013
[ °C ]   °F
Local TimeTemperatureDewpointHumidityBarometerVisibilityWind DirectionWind SpeedGust SpeedPrecipitationEventsConditions
12:53 AM44.1 °F36.0 °F73 %30.06 in10.0 miWest (280°)16.1 mph25.3 mph0.01 inOvercast
1:13 AM44.6 °F35.6 °F71 %30.05 in10.0 miWest (280°)13.8 mph21.9 mph0.00 inMostly Cloudy
1:49 AM44.6 °F35.6 °F71 %30.06 in10.0 miNW (310°)15.0 mph0.00 inOvercast
1:53 AM45.0 °F36.0 °F71 %30.07 in10.0 miWNW (300°)13.8 mph25.3 mph0.00 inOvercast
2:39 AM44.6 °F35.6 °F71 %30.07 in10.0 miNW (310°)12.7 mph21.9 mphOvercast
2:53 AM44.1 °F36.0 °F73 %30.09 in10.0 miNW (310°)18.4 mph23.0 mphOvercast
3:24 AM44.6 °F37.4 °F76 %30.08 in10.0 miNNW (330°)12.7 mph21.9 mphOvercast
3:53 AM44.1 °F36.0 °F73 %30.10 in10.0 miNW (320°)15.0 mph21.9 mphOvercast
4:29 AM42.8 °F35.6 °F76 %30.10 in10.0 miWNW (300°)13.8 mph20.7 mphOvercast
4:53 AM43.0 °F36.0 °F76 %30.12 in10.0 miNW (310°)11.5 mphOvercast
5:13 AM42.8 °F35.6 °F76 %30.11 in10.0 miNNW (330°)9.2 mphMostly Cloudy
5:53 AM43.0 °F36.0 °F76 %30.14 in10.0 miNNW (330°)10.4 mphOvercast
6:22 AM42.8 °F35.6 °F76 %30.13 in10.0 miWNW (300°)10.4 mph17.3 mphOvercast
6:39 AM42.8 °F35.6 °F76 %30.14 in10.0 miNW (310°)10.4 mphOvercast
6:53 AM44.1 °F37.0 °F76 %30.15 in10.0 miWNW (300°)11.5 mphOvercast
7:53 AM44.1 °F37.0 °F76 %30.17 in10.0 miWNW (300°)11.5 mphOvercast
8:21 AM44.6 °F35.6 °F71 %30.16 in10.0 miWest (280°)13.8 mphOvercast
8:53 AM45.0 °F36.0 °F71 %30.19 in10.0 miWNW (290°)16.1 mph19.6 mphOvercast
9:08 AM44.6 °F37.4 °F76 %30.18 in10.0 miWNW (300°)12.7 mphOvercast
9:53 AM44.1 °F37.9 °F79 %30.21 in10.0 miWest (280°)15.0 mph24.2 mph0.11 inRainLight Rain
10:53 AM45.0 °F37.0 °F74 %30.22 in10.0 miWest (270°)16.1 mph25.3 mph0.00 inRainLight Rain
11:53 AM46.0 °F37.0 °F71 %30.23 in10.0 miWest (270°)17.3 mph28.8 mph0.00 inOvercast
12:53 PM46.9 °F36.0 °F66 %30.22 in10.0 miWest (260°)15.0 mph26.5 mphPartly Cloudy
1:53 PM46.9 °F33.1 °F59 %30.21 in10.0 miWest (270°)20.7 mph27.6 mphMostly Cloudy
2:53 PM45.0 °F35.1 °F68 %30.21 in10.0 miWSW (240°)6.9 mphMostly Cloudy
3:16 PM42.8 °F37.4 °F81 %30.21 in10.0 miWNW (290°)15.0 mph27.6 mph0.01 inRainLight Rain
3:53 PM46.0 °F37.0 °F71 %30.21 in10.0 miWest (260°)10.4 mph18.4 mph0.01 inMostly Cloudy
4:53 PM44.1 °F34.0 °F68 %30.22 in10.0 miSW (230°)13.8 mph23.0 mph0.01 inOvercast
5:53 PM43.0 °F30.9 °F62 %30.21 in10.0 miWSW (240°)12.7 mph25.3 mph0.00 inOvercast
6:53 PM42.1 °F35.1 °F76 %30.22 in10.0 miSW (230°)10.4 mph23.0 mphOvercast
7:05 PM41.0 °F33.8 °F76 %30.20 in10.0 miWSW (240°)6.9 mph0.00 inRainLight Rain
7:53 PM41.0 °F35.1 °F79 %30.21 in10.0 miSSW (200°)12.7 mph21.9 mph0.00 inOvercast
8:53 PM39.9 °F35.1 °F83 %30.20 in10.0 miSSW (210°)15.0 mph24.2 mph0.00 inRainLight Rain
9:53 PM39.9 °F36.0 °F86 %30.20 in10.0 miSW (220°)10.4 mph0.02 inOvercast
10:39 PM39.2 °F35.6 °F87 %30.17 in9.0 miSW (220°)11.5 mph23.0 mph0.00 inRainLight Rain
10:46 PM39.2 °F33.8 °F81 %30.17 in10.0 miSW (220°)10.4 mph21.9 mph0.00 inRainLight Rain
10:53 PM39.9 °F34.0 °F79 %30.18 in10.0 miSW (220°)9.2 mph0.00 inOvercast
11:53 PM39.9 °F34.0 °F79 %30.14 in10.0 miSSW (210°)6.9 mphOvercast
Hourly data recorded from KDKK, located miles away from Chautauqua, New York







STORIES FROM OUR PARTNERS